Find Starlink 6275

NORAD ID: 56772 Int'l Des: 2023-078 Owner: SPXS Country: US Constellation: starlink operational
LEOCIRCULAR

現在のビュー

3D地球を読み込み中...

About Starlink 6275

Starlink 6275 (NORAD 56772) is a starlink constellation satellite (v1.5) launched May 31, 2023 by SPXS of US. It operates in LEO, CIRCULAR orbit with a mass of 305.00 kg.

次回通過

Passes for default location (London). Set your location on the main map for personalized predictions.

高度履歴

Loading altitude history...

軌道要素

1 56772U 23078F 26224.61390696 .00000490 00000-0 48848-4 0 9992
2 56772 70.0007 331.2935 0003355 270.9655 89.1119 14.98327071175542
Epoch: Aug 12, 2026 • Age: 9 hours

現在のステータス

高度 593.4 km
遠地点 / 近地点 N/A
速度 7.56 km/s
衛星直下点 -62.98°S, 123.82°W
打ち上げ日 May 31, 2023
運用期間 3.2 years
タイプ internet

技術仕様

分類 Payload
質量 305.00 kg
乾燥質量 290.00 kg
総質量 305.00 kg
長さ 0.20 m
直径 2.80 m
スパン 9.00 m
形状 Box + pan
製造者 SPXS
バスタイプ Starlink
フェーズステータス In Orbit
所有者/国 SPXS/US

Most Searched